Location: Heathcote
(40.9845°N, 73.7746°W)
Time: 13:14:24
(UTC+00:00)

USA 305 - Pass Details

Date: 29 October 2020
Orbit: 568 x 577 km, 54.0° (Epoch: 30 November)

Event Time Altitude Azimuth Distance (km) Brightness Sun altitude
Rises 22:36:42 0° 314° (NW) 2,788 7.0 -8.6°
Reaches altitude 10° 22:39:14 10° 326° (NW) 1,885 5.9 -9.1°
Maximum altitude 22:42:57 28° 26° (NNE) 1,095 4.0 -9.8°
Enters shadow 22:45:50 14° 79° (E) 1,613 4.5 -10.3°
